Regional Weather Roundup
Issued by NWS State College, PA

Home | Current Version | Previous Version | Text Only | Print | Product List | Glossary On
Versions: 1 2 3 4 5 6 7 8 9 10 11 12 13 14 15 16 17 18 19 20 21 22 23 24 25 26 27 28 29 30 31 32 33 34 35 36 37 38 39 40 41 42 43 44 45 46 47 48 49 50
000
ASUS41 KCTP 210910
RWRCTP

REGIONAL WEATHER ROUNDUP
NATIONAL WEATHER SERVICE STATE COLLEGE PA
500 AM EDT MON APR 21 2014

Note: "fair" indicates few or no clouds below 12,000 feet with no
significant weather and/or obstructions to visibility.

* = STATION THAT DOES NOT REPORT PRECIPITATION /E.G. RAIN...SNOW...ETC/
    THUNDER OR FOG.

PAZ002>004-007>009-013>016-020>023-029>032-211000-
WESTERN PENNSYLVANIA

CITY           SKY/WX    TMP DP  RH WIND       PRES   REMARKS
ERIE           PTCLDY    54  29  38 S13       30.07F
MEADVILLE      PTCLDY    50  29  44 SE6       30.10F
FRANKLIN*      PTCLDY    43  28  56 SE8       30.14F
NEW CASTLE     FAIR      46  29  52 CALM      30.12F
BEAVER COUNTY  NOT AVBL
BUTLER*        CLEAR     43  28  56 E5        30.14S
PITTSBURGH INT PTCLDY    48  30  49 SE5       30.10F
PITTSBURGH     CLEAR     49  30  48 SE5       30.11S
INDIANA*       CLEAR     46  32  57 CALM      30.14F
LATROBE        CLEAR     45  32  61 CALM      30.13F
WASHINGTON CO* PTCLDY    39  30  70 CALM      30.12F
$$

PAZ004>006-010>012-017>019-024>028-033>037-041-042-045-046-049>053-211000-
CENTRAL PENNSYLVANIA

CITY           SKY/WX    TMP DP  RH WIND       PRES   REMARKS
BRADFORD       MOCLDY    43  30  60 SE3       30.14F
DUBOIS         PTCLDY    44  32  62 E7        30.13F
CLEARFIELD     PTCLDY    39  31  72 N5        30.16F
JOHNSTOWN      CLEAR     42  30  62 S7        30.14F
ALTOONA        CLEAR     44  34  67 S5        30.18S
STATE COLLEGE  PTCLDY    47  28  47 CALM      30.18S
WILLIAMSPORT   CLEAR     41  31  67 NE5       30.20S
SELINSGROVE    CLEAR     38  33  82 CALM      30.21F
FT INDIANTOWN  NOT AVBL
CAPITAL CITY   CLEAR     37  30  75 CALM      30.23F
HARRISBURG     PTCLDY    41  30  65 CALM      30.22F
YORK           CLEAR     33  31  92 CALM      30.22F
$$

PAZ038>040-043-044-047-048-054-055-060>062-067>071-211000-
EASTERN PENNSYLVANIA

CITY           SKY/WX    TMP DP  RH WIND       PRES   REMARKS
SCRANTON       CLEAR     37  23  56 S6        30.20S
MOUNT POCONO   CLEAR     31  23  72 CALM      30.18F
ALLENTOWN      CLEAR     32  26  78 CALM      30.23F
QUAKERTOWN*    SUNNY     30  28  93 CALM      30.23F
READING        CLEAR     37  29  72 CALM      30.23S
LANCASTER      CLEAR     35  27  72 CALM      30.22F
COATESVILLE    SUNNY     37  23  56 CALM      30.23S
POTTSTOWN      CLEAR     33  27  78 CALM      30.25S
BLUE BELL      CLEAR     34  30  86 CALM      30.23S
DOYLESTOWN     CLEAR     33  27  78 CALM      30.23S
WILLOW GROVE   NOT AVBL
NORTH PHILA    CLEAR     39  23  52 CALM      30.25F
PHILADELPHIA   PTCLDY    40  25  55 NE6       30.25S
$$



USA.gov is the U.S. government's official web portal to all federal, state and local government web resources and services.